When you browse on this site, cookies collect data to enhance your experience and personalize the content and advertising you see.
Visit our Privacy Policy to learn more. By continuing to use the site, you agree to this use of cookies and data.
  • en Suisse
  • Liste des pays
  • À 7 jours
  • Température de l'eau
  • Carte satellitaire
  • Carte météo
  • Widgets météo
  • user-avatar
    Se connecter

    Météo par heure à Goiania

    Ce jour, 22 Janvier, Mardi

    Heure Température Précipitation Vent Pression Humidité
    00:00 +25°C° 0 mm 0 m/s 701 mmHg 68%
    01:00 +26°C° 0 mm 1 m/s 700 mmHg 71%
    02:00 +25°C° 0 mm 1 m/s 700 mmHg 74%
    03:00 +25°C° 0 mm 1 m/s 700 mmHg 76%
    04:00 +24°C° 0 mm 1 m/s 700 mmHg 76%
    05:00 +24°C° 0 mm 1 m/s 700 mmHg 77%
    06:00 +23°C° 0 mm 1 m/s 700 mmHg 77%
    07:00 +25°C° 0 mm 1 m/s 700 mmHg 71%
    08:00 +27°C° 0 mm 1 m/s 701 mmHg 66%
    09:00 +29°C° 0 mm 1 m/s 702 mmHg 61%
    10:00 +30°C° 0 mm 1 m/s 701 mmHg 57%
    11:00 +32°C° 0 mm 1 m/s 701 mmHg 53%
    12:00 +33°C° 0 mm 1 m/s 701 mmHg 49%
    13:00 +32°C° 0 mm 2 m/s 701 mmHg 51%
    14:00 +32°C° 0 mm 2 m/s 700 mmHg 52%
    15:00 +33°C° 0 mm 3 m/s 700 mmHg 54%
    16:00 +31°C° 0 mm 3 m/s 699 mmHg 58%
    17:00 +30°C° 0 mm 3 m/s 699 mmHg 63%
    18:00 +29°C° 0 mm 3 m/s 698 mmHg 67%
    19:00 +28°C° 0 mm 2 m/s 699 mmHg 70%
    20:00 +27°C° 0 mm 2 m/s 699 mmHg 72%
    21:00 +26°C° 0 mm 2 m/s 699 mmHg 75%
    22:00 +26°C° 0.1 mm 2 m/s 700 mmHg 78%
    23:00 +25°C° 0.1 mm 2 m/s 700 mmHg 81%

    Demain, 23 Janvier, Mercredi

    Heure Température Précipitation Vent Pression Humidité
    00:00 +24°C° 0.1 mm 2 m/s 700 mmHg 84%
    01:00 +24°C° 0 mm 2 m/s 699 mmHg 85%
    02:00 +24°C° 0 mm 2 m/s 699 mmHg 86%
    03:00 +24°C° 0 mm 2 m/s 698 mmHg 87%
    04:00 +24°C° 0 mm 2 m/s 698 mmHg 87%
    05:00 +23°C° 0 mm 2 m/s 698 mmHg 86%
    06:00 +23°C° 0 mm 2 m/s 698 mmHg 86%
    07:00 +25°C° 0 mm 2 m/s 699 mmHg 77%
    08:00 +27°C° 0 mm 3 m/s 700 mmHg 69%
    09:00 +29°C° 0 mm 3 m/s 701 mmHg 61%
    10:00 +31°C° 0 mm 3 m/s 701 mmHg 55%
    11:00 +33°C° 0 mm 3 m/s 701 mmHg 50%
    12:00 +34°C° 0 mm 3 m/s 701 mmHg 44%
    13:00 +35°C° 0 mm 3 m/s 701 mmHg 45%
    14:00 +35°C° 0 mm 2 m/s 700 mmHg 45%
    15:00 +35°C° 0 mm 2 m/s 699 mmHg 45%
    16:00 +34°C° 0 mm 2 m/s 699 mmHg 50%
    17:00 +32°C° 0 mm 2 m/s 698 mmHg 55%
    18:00 +31°C° 0 mm 2 m/s 698 mmHg 60%
    19:00 +30°C° 0 mm 2 m/s 698 mmHg 62%
    20:00 +28°C° 0 mm 2 m/s 699 mmHg 64%
    21:00 +27°C° 0 mm 2 m/s 699 mmHg 66%
    22:00 +26°C° 0 mm 2 m/s 699 mmHg 68%
    23:00 +26°C° 0 mm 2 m/s 699 mmHg 70%

    Après-demain, 24 Janvier, Jeudi

    Heure Température Précipitation Vent Pression Humidité
    00:00 +25°C° 0 mm 2 m/s 699 mmHg 71%
    01:00 +25°C° 0 mm 2 m/s 699 mmHg 72%
    02:00 +24°C° 0 mm 2 m/s 698 mmHg 73%
    03:00 +24°C° 0 mm 2 m/s 698 mmHg 73%
    04:00 +23°C° 0 mm 2 m/s 698 mmHg 73%
    05:00 +23°C° 0 mm 2 m/s 698 mmHg 73%
    06:00 +23°C° 0 mm 2 m/s 698 mmHg 72%
    07:00 +25°C° 0 mm 3 m/s 699 mmHg 66%
    08:00 +27°C° 0 mm 3 m/s 699 mmHg 60%
    09:00 +29°C° 0 mm 4 m/s 700 mmHg 54%
    10:00 +32°C° 0 mm 4 m/s 700 mmHg 49%
    11:00 +33°C° 0 mm 3 m/s 700 mmHg 43%
    12:00 +35°C° 0 mm 3 m/s 700 mmHg 38%
    13:00 +35°C° 0 mm 3 m/s 700 mmHg 36%
    14:00 +36°C° 0 mm 2 m/s 699 mmHg 34%
    15:00 +36°C° 0 mm 2 m/s 698 mmHg 32%
    16:00 +35°C° 0 mm 2 m/s 698 mmHg 36%
    17:00 +34°C° 0 mm 2 m/s 698 mmHg 41%
    18:00 +32°C° 0 mm 1 m/s 697 mmHg 46%
    19:00 +30°C° 0 mm 1 m/s 698 mmHg 48%
    20:00 +29°C° 0 mm 1 m/s 698 mmHg 49%
    21:00 +27°C° 0 mm 1 m/s 699 mmHg 50%
    22:00 +27°C° 0 mm 1 m/s 699 mmHg 52%
    23:00 +26°C° 0 mm 1 m/s 699 mmHg 54%

    25 Janvier, Vendredi

    Heure Température Précipitation Vent Pression Humidité
    00:00 +26°C° 0 mm 1 m/s 699 mmHg 55%
    01:00 +25°C° 0 mm 2 m/s 698 mmHg 59%
    02:00 +25°C° 0 mm 2 m/s 698 mmHg 63%
    03:00 +24°C° 0 mm 2 m/s 697 mmHg 67%
    04:00 +24°C° 0 mm 2 m/s 697 mmHg 69%
    05:00 +24°C° 0 mm 2 m/s 697 mmHg 70%
    06:00 +23°C° 0 mm 2 m/s 697 mmHg 72%
    07:00 +25°C° 0 mm 3 m/s 698 mmHg 67%
    08:00 +27°C° 0 mm 3 m/s 699 mmHg 61%
    09:00 +29°C° 0 mm 4 m/s 699 mmHg 56%
    10:00 +32°C° 0 mm 4 m/s 699 mmHg 51%
    11:00 +33°C° 0 mm 4 m/s 699 mmHg 47%
    12:00 +35°C° 0 mm 3 m/s 699 mmHg 42%
    13:00 +35°C° 0 mm 2 m/s 699 mmHg 42%
    14:00 +35°C° 0 mm 2 m/s 698 mmHg 43%
    15:00 +34°C° 0 mm 1 m/s 697 mmHg 43%
    16:00 +32°C° 0 mm 1 m/s 697 mmHg 47%
    17:00 +31°C° 0 mm 1 m/s 697 mmHg 52%
    18:00 +30°C° 0 mm 1 m/s 697 mmHg 56%
    19:00 +28°C° 0 mm 1 m/s 697 mmHg 61%
    20:00 +27°C° 0 mm 1 m/s 697 mmHg 66%
    21:00 +25°C° 0 mm 1 m/s 697 mmHg 71%
    22:00 +25°C° 0.2 mm 1 m/s 698 mmHg 75%
    23:00 +23°C° 0.2 mm 0 m/s 698 mmHg 79%

    26 Janvier, Samedi

    Heure Température Précipitation Vent Pression Humidité
    00:00 +22°C° 0.2 mm 0 m/s 698 mmHg 83%
    01:00 +24°C° 0.3 mm 1 m/s 698 mmHg 84%
    02:00 +24°C° 0.3 mm 1 m/s 698 mmHg 86%
    03:00 +23°C° 0.3 mm 2 m/s 698 mmHg 87%
    04:00 +23°C° 0.7 mm 2 m/s 698 mmHg 87%
    05:00 +22°C° 0.7 mm 3 m/s 698 mmHg 87%
    06:00 +22°C° 0.7 mm 3 m/s 698 mmHg 88%
    07:00 +23°C° 0 mm 4 m/s 699 mmHg 83%
    08:00 +25°C° 0 mm 4 m/s 699 mmHg 77%
    09:00 +26°C° 0 mm 4 m/s 700 mmHg 72%
    10:00 +28°C° 0 mm 4 m/s 700 mmHg 65%
    11:00 +30°C° 0 mm 4 m/s 700 mmHg 58%
    12:00 +32°C° 0 mm 4 m/s 699 mmHg 51%
    13:00 +33°C° 0 mm 4 m/s 699 mmHg 49%
    14:00 +34°C° 0 mm 3 m/s 698 mmHg 48%
    15:00 +34°C° 0 mm 3 m/s 698 mmHg 46%
    16:00 +31°C° 2 mm 3 m/s 698 mmHg 56%
    17:00 +29°C° 2 mm 2 m/s 697 mmHg 67%
    18:00 +26°C° 2 mm 2 m/s 697 mmHg 77%
    19:00 +25°C° 7.7 mm 3 m/s 698 mmHg 81%
    20:00 +24°C° 7.7 mm 3 m/s 698 mmHg 84%
    21:00 +22°C° 7.7 mm 4 m/s 699 mmHg 88%
    22:00 +22°C° 3 mm 4 m/s 699 mmHg 88%
    23:00 +21°C° 3 mm 4 m/s 699 mmHg 89%

    27 Janvier, Dimanche

    Heure Température Précipitation Vent Pression Humidité
    00:00 +21°C° 3 mm 4 m/s 699 mmHg 89%
    01:00 +21°C° 0.2 mm 4 m/s 699 mmHg 89%
    02:00 +21°C° 0.2 mm 4 m/s 698 mmHg 89%
    03:00 +21°C° 0.2 mm 4 m/s 698 mmHg 89%
    04:00 +21°C° 0 mm 3 m/s 698 mmHg 90%
    05:00 +21°C° 0 mm 3 m/s 698 mmHg 90%
    06:00 +20°C° 0 mm 3 m/s 699 mmHg 90%
    07:00 +22°C° 0.1 mm 3 m/s 699 mmHg 84%
    08:00 +23°C° 0.1 mm 4 m/s 700 mmHg 79%
    09:00 +26°C° 0.1 mm 4 m/s 701 mmHg 73%
    10:00 +26°C° 1.3 mm 4 m/s 701 mmHg 73%
    11:00 +27°C° 1.3 mm 4 m/s 701 mmHg 73%
    12:00 +28°C° 1.3 mm 4 m/s 701 mmHg 72%
    13:00 +27°C° 2.5 mm 4 m/s 700 mmHg 74%
    14:00 +27°C° 2.5 mm 3 m/s 700 mmHg 76%
    15:00 +27°C° 2.5 mm 3 m/s 699 mmHg 78%
    16:00 +26°C° 2.1 mm 2 m/s 699 mmHg 81%
    17:00 +25°C° 2.1 mm 2 m/s 699 mmHg 84%
    18:00 +24°C° 2.1 mm 2 m/s 699 mmHg 87%
    19:00 +23°C° 0.4 mm 2 m/s 699 mmHg 88%
    20:00 +23°C° 0.4 mm 2 m/s 699 mmHg 88%
    21:00 +23°C° 0.4 mm 2 m/s 700 mmHg 88%
    22:00 +23°C° 0 mm 2 m/s 700 mmHg 89%
    23:00 +23°C° 0 mm 2 m/s 700 mmHg 90%
    Voir plus